Location: Cornospital
(48.0620°N, 3.3837°W)
Time: 20:19:35
(UTC+00:00)

FALCON 9 DEB - Pass Details

Date: 17 June 2021
Orbit: 363 x 377 km, 53.0° (Epoch: 02 August)

Event Time Altitude Azimuth Distance (km) Brightness Sun altitude
Exits shadow 23:50:26 - 259° (WSW) 1,819 6.2 -18.3°
Reaches altitude 10° 23:51:27 10° 262° (W) 1,410 5.7 -18.3°
Maximum altitude 23:54:32 53° 340° (NNW) 485 3.7 -18.4°
Drops below altitude 10° 23:57:39 10° 59° (ENE) 1,414 6.0 -18.4°
Sets 23:59:44 0° 64° (ENE) 2,269 7.1 -18.5°
